EW0791 Weather Reports


time (UTC)temp
F
wind
direction
speed
knots
gust
knots
rain 1hr
in
rain 24hr
in
rain mn
in
humidity
%
barometer
mb
20220124101816 18 309 0.0 0.9 0.00 0.00 0.00 89 1011.6
20220124100324 19 279 0.0 0.9 0.00 0.00 0.00 90 1011.3
20220124094830 18 221 0.0 0.9 0.00 0.00 0.00 92 1011.0
20220124093338 18 220 0.0 0.0 0.00 0.00 0.00 91 1010.7
20220124091817 18 220 0.0 0.0 0.00 0.00 0.00 91 1010.5
20220124090325 18 221 0.0 0.0 0.00 0.00 0.00 91 1010.3
20220124084832 19 221 0.0 0.9 0.00 0.00 0.00 90 1010.1
20220124083320 19 220 0.0 0.9 0.00 0.00 0.00 90 1010.0
20220124081824 20 220 0.0 0.9 0.00 0.00 0.00 90 1009.8
20220124080332 20 220 0.0 0.0 0.00 0.00 0.00 89 1009.7
20220124074834 21 220 0.0 0.0 0.00 0.00 0.00 89 1009.6
20220124073316 21 220 0.0 0.0 0.00 0.00 0.00 89 1009.7
20220124071813 21 221 0.0 0.0 0.00 0.00 0.00 87 1009.6
20220124070318 22 220 0.0 0.9 0.00 0.00 0.00 86 1009.5
20220124064826 23 220 0.0 0.9 0.00 0.00 0.00 86 1009.5
20220124060313 24 220 0.0 0.0 0.00 0.00 0.00 83 1009.3
20220124054817 25 221 0.0 0.0 0.00 0.00 0.00 82 1009.2
20220124053323 26 221 0.0 0.9 0.00 0.00 0.00 81 1009.2
20220124051831 26 221 0.0 0.9 0.00 0.00 0.00 80 1009.2
20220124050338 26 201 0.0 1.7 0.00 0.00 0.00 80 1009.2
20220124044837 27 243 0.0 0.9 0.00 0.00 0.00 79 1009.2
20220124043317 27 221 0.0 1.7 0.00 0.00 0.00 79 1009.6
20220124041824 27 258 0.0 0.9 0.00 0.00 0.00 78 1009.4
20220124040332 27 20 0.0 0.9 0.00 0.00 0.00 78 1009.4
20220124034837 27 289 0.0 1.7 0.00 0.00 0.00 77 1009.5
20220124033320 27 216 0.9 5.2 0.00 0.00 0.00 77 1009.4
20220124031825 27 269 0.9 4.3 0.00 0.00 0.00 78 1009.7
20220124030332 28 202 1.7 4.3 0.00 0.00 0.00 77 1009.5
20220124024838 28 198 1.7 3.5 0.00 0.00 0.00 77 1009.5
20220124023326 28 217 1.7 2.6 0.00 0.00 0.00 77 1009.8
20220124021832 28 272 1.7 6.1 0.00 0.00 0.00 76 1009.7
20220124020337 29 287 1.7 5.2 0.00 0.00 0.00 71 1009.6
20220124014816 29 269 1.7 4.3 0.00 0.00 0.00 70 1009.6
20220124013322 29 181 1.7 5.2 0.00 0.00 0.00 69 1009.7
20220124011827 29 136 0.9 5.2 0.00 0.00 0.00 68 1009.6
20220124010337 29 233 1.7 7.0 0.00 0.00 0.00 66 1009.4
20220124004841 29 285 1.7 5.2 0.00 0.00 0.00 65 1009.4
20220124003315 29 293 1.7 5.2 0.00 0.00 0.00 64 1009.2
20220124001824 29 259 0.9 3.5 0.00 0.00 0.00 62 1009.1
20220124000328 30 266 2.6 5.2 0.00 0.00 0.00 60 1009.0
20220123234834 30 246 1.7 3.5 0.00 0.00 0.00 59 1009.0
20220123233339 30 249 1.7 3.5 0.00 0.00 0.00 57 1008.9
20220123231820 30 276 1.7 5.2 0.00 0.00 0.00 54 1008.9
20220123230327 30 222 0.9 1.7 0.00 0.00 0.00 53 1008.9
20220123224835 30 295 1.7 2.6 0.00 0.00 0.00 53 1008.8
20220123223315 30 255 0.9 2.6 0.00 0.00 0.00 53 1008.6
20220123221823 30 278 0.0 2.6 0.00 0.00 0.00 52 1008.6
20220123220326 31 271 0.9 4.3 0.00 0.00 0.00 52 1008.5
20220123214834 31 282 2.6 5.2 0.00 0.00 0.00 51 1008.4
20220123213316 31 223 1.7 5.2 0.00 0.00 0.00 50 1008.2
20220123211818 31 224 1.7 7.8 0.00 0.00 0.00 49 1008.2
20220123210332 32 194 2.6 8.7 0.00 0.00 0.00 48 1008.1
20220123204839 32 217 4.3 8.7 0.00 0.00 0.00 47 1008.0
20220123203320 33 220 4.3 9.6 0.00 0.00 0.00 46 1007.8
20220123201828 33 322 2.6 7.8 0.00 0.00 0.00 46 1008.0
20220123200337 33 256 4.3 7.0 0.00 0.00 0.00 45 1008.0
20220123194814 33 226 3.5 8.7 0.00 0.00 0.00 45 1008.2
20220123193315 34 248 2.6 12.2 0.00 0.00 0.00 45 1008.1
20220123191826 34 292 0.9 5.2 0.00 0.00 0.00 45 1008.4
20220123190332 34 302 2.6 7.0 0.00 0.00 0.00 44 1008.4
20220123184840 34 179 2.6 9.6 0.00 0.00 0.00 44 1008.5
20220123183321 33 325 3.5 7.0 0.00 0.00 0.00 44 1008.6
20220123181827 33 198 3.5 9.6 0.00 0.00 0.00 44 1008.7
20220123180334 33 225 2.6 7.0 0.00 0.00 0.00 45 1009.0
20220123174817 32 201 7.0 10.4 0.00 0.00 0.00 44 1009.4
20220123173332 32 311 3.5 8.7 0.00 0.00 0.00 46 1009.5
20220123171839 32 198 2.6 7.8 0.00 0.00 0.00 46 1009.8
20220123170315 31 215 4.3 8.7 0.00 0.00 0.00 46 1010.0
20220123164819 31 229 1.7 7.0 0.00 0.00 0.00 48 1010.3
20220123163327 30 258 1.7 8.7 0.00 0.00 0.00 50 1010.6
20220123161834 29 223 4.3 9.6 0.00 0.00 0.00 50 1011.1
20220123160339 28 262 4.3 8.7 0.00 0.00 0.00 52 1011.6
20220123154838 27 224 2.6 7.0 0.00 0.00 0.00 54 1011.9
20220123153335 25 175 2.6 7.8 0.00 0.00 0.00 56 1012.2
20220123151816 25 229 1.7 6.1 0.00 0.00 0.00 56 1012.1
20220123150340 24 273 1.7 6.1 0.00 0.00 0.00 58 1012.3
20220123144816 23 195 3.5 7.8 0.00 0.00 0.00 59 1012.4
20220123143318 23 235 1.7 7.0 0.00 0.00 0.00 61 1012.4
20220123141826 22 226 0.0 5.2 0.00 0.00 0.00 63 1012.6
20220123140331 21 173 0.9 5.2 0.00 0.00 0.00 65 1012.7
20220123134839 21 212 1.7 5.2 0.00 0.00 0.00 65 1012.9
20220123133319 20 234 2.6 6.1 0.00 0.00 0.00 67 1012.9
20220123131827 20 226 1.7 3.5 0.00 0.00 0.00 69 1013.1
20220123130329 19 221 1.7 4.3 0.00 0.00 0.00 70 1013.3
20220123124838 19 160 0.9 3.5 0.00 0.00 0.00 72 1013.4
20220123123318 18 176 1.7 3.5 0.00 0.00 0.00 73 1013.5
20220123121827 18 239 1.7 4.3 0.00 0.00 0.00 74 1013.5
20220123120338 18 204 1.7 3.5 0.00 0.00 0.00 75 1013.6
20220123114830 18 210 1.7 4.3 0.00 0.00 0.00 76 1013.7
20220123113339 18 207 1.7 3.5 0.00 0.00 0.00 78 1014.0
20220123111819 17 213 1.7 4.3 0.00 0.00 0.00 79 1013.8
20220123110329 17 202 1.7 2.6 0.00 0.00 0.00 80 1013.6
20220123104836 17 222 0.9 1.7 0.00 0.00 0.00 81 1013.5
20220123103316 16 212 1.7 3.5 0.00 0.00 0.00 82 1013.4